Miscellaneous Local Product
Issued by NWS North Platte, NE

Current Version | Previous Version | Text Only | Print | Product List | Glossary On
Versions: 1 2 3 4 5 6 7 8 9 10 11 12 13 14 15 16 17 18 19 20 21 22 23 24 25 26 27 28 29 30 31 32 33 34 35 36 37 38 39 40 41 42 43 44 45 46 47 48 49 50
848
AXUS43 KLBF 181510
MISLBF


WESTERN AND NORTH CENTRAL NEBRASKA HOURLY WEATHER ROUNDUP
NATIONAL WEATHER SERVICE NORTH PLATTE NE
1000 AM CDT WED OCT 18 2017

NOTE: "FAIR" INDICATES FEW OR NO CLOUDS BELOW 12,000 FEET WITH NO
SIGNIFICANT WEATHER AND/OR OBSTRUCTIONS TO VISIBILITY.

NOTE: STATIONS NOT REPORTING VARIABLES SUCH AS SKY/WEATHER OR
PRESSURE ARE PROVIDED BY RAWS AND APRS NETWORKS AND ARE NOT UNDER
NATIONAL WEATHER SERVICE QUALITY CONTROL.

...OBSERVATIONS IN AND NEAR THE EASTERN PANHANDLE OF NEBRASKA...

CITY           SKY/WX    TMP DP  RH WIND       PRES   REMARKS
PINE RIDGE     SUNNY     61  26  26 N15       30.05R
GORDON         FAIR      61  26  26 N14       30.05R
CHADRON        SUNNY     53  23  31 S3        30.07R
ALLIANCE       SUNNY     52  28  39 NW7       30.06R
SIDNEY         SUNNY     61  22  22 W13       30.08R
CRESCENT LAKE    N/A     57  24  28 W3          N/A
$$

...OBSERVATIONS IN NORTHERN NEBRASKA AND FAR SOUTHERN SOUTH DAKOTA...

CITY           SKY/WX    TMP DP  RH WIND       PRES   REMARKS
WINNER         FAIR      60  35  39 N16G23    29.95R
VALENTINE      CLOUDY    64  28  25 N21G33    29.96R
THEDFORD       SUNNY     64  30  28 NW10G16   29.97R
AINSWORTH      SUNNY     62  32  32 N22G30    29.93R
O`NEILL        SUNNY     58  34  40 NW14      29.88R
ORD            SUNNY     57  41  55 CALM      29.87R
BROKEN BOW     SUNNY     65  31  28 NW13G20   29.90R
VALENTINE NWR    N/A     60  26  27 NW10G17     N/A
HALSEY           N/A     61  24  24 W9G16       N/A
BUTTE            N/A     62  33  33 N21G30      N/A
CHAMBERS         N/A     63  38  39 N3          N/A
EWING            N/A     61  42  49 W6          N/A
$$

...OBSERVATIONS IN SOUTHWEST NEBRASKA AND FAR NORTHEAST COLORADO...

CITY           SKY/WX    TMP DP  RH WIND       PRES   REMARKS
WRAY           FAIR      52  32  46 W9        30.05R
HOLYOKE        FAIR      55  32  41 W9        30.03R
IMPERIAL       CLOUDY    58  28  32 NW6       30.01R
OGALLALA       SUNNY     54  33  44 SW6       30.02R
NORTH PLATTE   SUNNY     54  36  50 W12       29.98R
MCCOOK         MOSUNNY   52  36  54 W17       29.96R
LEXINGTON      SUNNY     55  40  55 NW6       29.93R
STAPLETON        N/A     62  31  31 CALM        N/A
GOTHENBURG       N/A     49  33  54 NW3         N/A
CALLAWAY         N/A     56  32  40 W12         N/A
$$

...OBSERVATIONS IN CENTRAL LINCOLN COUNTY AREA...

CITY           SKY/WX    TMP DP  RH WIND       PRES   REMARKS
N.P. AIRPORT   SUNNY     54  36  50 W12       29.98R
N.P. DOWNTOWN    N/A     54  36  51 CALM        N/A
N.P. SOUTHEAST   N/A     54  33  45 NW3         N/A
N.P. HILLCREST   N/A     52  38  58 NW7         N/A
$$

...SOME OBSERVATIONS FROM AROUND THE REGION...

CITY           SKY/WX    TMP DP  RH WIND       PRES   REMARKS
DENVER         CLOUDY    57  18  21 SW8       30.15R
LIMON          CLOUDY    44  34  67 NW5       30.16R
ASPEN          CLOUDY    43  12  28 CALM      30.35R
LARAMIE        SUNNY     48  16  27 W10       30.22S
CASPER         SUNNY     54  13  19 SW15      30.12R
CHEYENNE       SUNNY     56  11  16 W20G28    30.15R
SCOTTSBLUFF    SUNNY     58  22  24 W6        30.07R
GRAND ISLAND   SUNNY     57  45  64 SW12      29.91R
OMAHA          MOSUNNY   56  47  71 S12       29.93F
SIOUX FALLS    PTSUNNY   57  47  69 SW7       29.83R
PIERRE         SUNNY     59  30  33 N18G24    29.94R
RAPID CITY     CLOUDY    53  28  38 N13       30.08R
BISMARCK       CLOUDY    52  29  41 NW16G25   29.95R
KANSAS CITY    MOSUNNY   61  46  57 S18G28    30.05S
HILL CITY      MOSUNNY   52  43  71 W5        29.98S
WICHITA        MOSUNNY   59  46  62 S15       30.04R
DODGE CITY     SUNNY     59  42  53 SW8       30.01R
OKLAHOMA CITY  MOSUNNY   61  45  55 S13       30.10R
DALLAS         MOSUNNY   65  47  52 S10       30.16R
AMARILLO       SUNNY     56  46  69 SW9       30.08R
$$




USA.gov is the U.S. government's official web portal to all federal, state and local government web resources and services.